Regional Weather Roundup
Issued by NWS

Home | Current Version | Previous Version | Graphics & Text | Print | Product List | Glossary On
Versions: 1 2 3 4 5 6 7 8 9 10 11 12 13 14 15 16 17 18 19 20 21 22 23 24 25 26 27 28
000
ASUS45 KPSR 012110
RWRAZ

ARIZONA HOURLY REGIONAL WEATHER ROUNDUP
NATIONAL WEATHER SERVICE PHOENIX AZ
200 PM MST SUN MAY 01 2016

NOTE: FAIR INDICATES FEW OR NO CLOUDS BELOW 12,000 FEET WITH NO
SIGNIFICANT WEATHER AND/OR OBSTRUCTIONS TO VISIBILITY.

AZZ001>003-036-012200-
NORTHWEST ARIZONA

CITY           SKY/WX    TMP DP  RH WIND       PRES   REMARKS
BULLHEAD CITY  MOSUNNY   81  39  22 N7        29.88S
KINGMAN        CLOUDY    65  38  36 S5        29.94S
$$

AZZ004>008-015-016-018-012200-
NORTH CENTRAL ARIZONA

CITY           SKY/WX    TMP DP  RH WIND       PRES   REMARKS
GRAND CANYON   PTSUNNY   51  35  54 NE13      30.04S
WILLIAMS       MOSUNNY   50  34  53 VRB5G14   30.09S
PRESCOTT       CLOUDY    52  42  69 VRB5      30.00R
FLAGSTAFF      CLOUDY    42  38  85 CALM      30.03S
PAYSON         PTSUNNY   55  37  50 VRB5      30.02S
PAGE           PTSUNNY   53  37  54 NE6       30.04S
$$

AZZ009>014-017-012200-
NORTHEAST ARIZONA

CITY           SKY/WX    TMP DP  RH WIND       PRES   REMARKS
WINSLOW        CLOUDY    51  42  71 W8        30.01S
SAINT JOHNS    CLOUDY    47  41  80 E10       30.01R
WINDOW ROCK    CLOUDY    44  38  79 S10       30.06S
SHOW LOW       MOSUNNY   50  32  50 SW13G20   30.02S
$$

AZZ023-012200-
GREATER PHOENIX AREA

CITY           SKY/WX    TMP DP  RH WIND       PRES   REMARKS
PHOENIX        PTSUNNY   76  41  28 SE10      29.86S
BUCKEYE        MOSUNNY   75  41  29 S8        29.89S
GLENDALE       MOSUNNY   75  43  31 MISG      29.88F
LUKE AFB       MOSUNNY   75  41  29 S5        29.86S
DEER VALLEY    SUNNY     73  39  29 S7        29.88R
SCOTTSDALE     MOSUNNY   75  39  27 SE8       29.89S
MESA-FALCON    MOSUNNY  N/A N/A N/A SE9       29.85F
MESA-GATEWAY   PTSUNNY   73  39  29 CALM      29.89F
$$

AZZ027-028-012200-
SOUTHWEST MARICOPA COUNTY AND PINAL COUNTY

CITY           SKY/WX    TMP DP  RH WIND       PRES   REMARKS
CASA GRANDE    PTSUNNY   70  48  46 N8        29.91F
GILA BEND      FAIR      75  43  30 VRB7      29.85F
$$

AZZ503-504-507>509-012200-
SOUTHEAST ARIZONA

CITY           SKY/WX    TMP DP  RH WIND       PRES   REMARKS
TUCSON         PTSUNNY   71  34  25 VRB3      29.92S
DAVIS-MONTHAN  CLOUDY    71  35  27 W8        29.90S
RYAN FIELD     SUNNY     73  34  23 W8G16     29.91S
NOGALES        PTSUNNY   69  31  24 VRB5G18   29.94R
SIERRA VISTA   PTSUNNY   66  26  21 SW10G16   29.96S
DOUGLAS        PTSUNNY   69  28  21 S18       29.92F
SAFFORD        PTSUNNY   71  30  21 VRB7      29.89F
$$

AZZ020-021-025-026-031-012200-
SOUTHWEST ARIZONA

CITY           SKY/WX    TMP DP  RH WIND       PRES   REMARKS
YUMA           SUNNY     81  39  22 E7        29.84F
$$

CAZ031-033-041-043-047-048-061-012200-
SOUTHERN CALIFORNIA

CITY           SKY/WX    TMP DP  RH WIND       PRES   REMARKS
DOWNTOWN L.A.  MOSUNNY   72  54  53 VRB3      29.91S
L.A. AIRPORT   MOSUNNY   68  52  56 W10       29.93S
SAN DIEGO      MOSUNNY   67  51  56 SW9       29.95S
BURBANK        SUNNY     71  52  50 S9G17     29.90F
ONTARIO        MOSUNNY   74  49  41 W15       29.90F
RIVERSIDE      SUNNY     75  48  38 W10G17    29.89F
PALM SPRINGS   MOSUNNY   85  39  19 VRB7      29.82F
EL CENTRO NAS  SUNNY    N/A N/A N/A VRB6      29.85S
IMPERIAL       SUNNY     82  42  24 SE7       29.83S
BLYTHE         SUNNY     81  40  23 E13G18    29.85F
NEEDLES        MOSUNNY   80  42  25 NW6       29.86S
$$

NVZ020-UTZ003-012200-
SOUTHERN NEVADA-UTAH

CITY           SKY/WX    TMP DP  RH WIND       PRES   REMARKS
LAS VEGAS      MOSUNNY   74  34  23 VRB7      29.88S
SALT LAKE CITY MOSUNNY   63  24  22 NE13G24   30.03F
$$

NMZ009-TXZ055-012200-
NEW MEXICO-WEST TEXAS

CITY           SKY/WX    TMP DP  RH WIND       PRES   REMARKS
ALBUQUERQUE    PTSUNNY   50  29  44 E31G40    30.09S
EL PASO        MOSUNNY   64  33  31 E12G22    30.00S
$$


........................KEY........................
SKY/WX - SKY CONDITION/WEATHER
TMP    - TEMPERATURE IN FAHRENHEIT
DP     - DEW POINT IN FAHRENHEIT
RH     - RELATIVE HUMIDITY IN PERCENT
WIND   - DIRECTION AND SPEED IN MILES PER HOUR (MPH)
VRB    - VARIABLE WIND DIRECTION
PRES   - MEAN SEA LEVEL PRESSURE IN INCHES OF MERCURY
         F - FALLING PRESSURE   R - RISING PRESSURE
         S - STEADY PRESSURE
VSB    - VISIBILITY IN MILES
HX     - HEAT INDEX IN FAHRENHEIT
WCI    - WIND CHILL INDEX IN FAHRENHEIT
TC     - TEMPERATURE IN CELSIUS WHICH IS ALSO KNOWN AS
         TEMPERATURE IN CENTIGRADE
AFB    - AIR FORCE BASE
         LUKE AFB IS LUKE AIR FORCE BASE
         DAVIS-MONTHAN IS DAVIS-MONTHAN AIR FORCE BASE
NAS    - NAVAL AIR STATION
         EL CENTRO NAS IS EL CENTRO NAVAL AIR STATION
N/A    - NOT AVAILABLE





USA.gov is the U.S. government's official web portal to all federal, state and local government web resources and services.